Year,Month,Day,Hour,Minute,Value (Times are PST for temperature in C)
2011,12,12,00,00,-1.70
2011,12,12,00,01,-1.70
2011,12,12,00,02,-1.70
2011,12,12,00,03,-1.60
2011,12,12,00,04,-1.70
2011,12,12,00,05,-1.80
2011,12,12,00,06,-1.80
2011,12,12,00,07,-1.90
2011,12,12,00,08,-1.80
2011,12,12,00,09,-1.80
2011,12,12,00,10,-1.80
2011,12,12,00,11,-1.90
2011,12,12,00,12,-1.90
2011,12,12,00,13,-1.80
2011,12,12,00,14,-1.80
2011,12,12,00,15,-1.80
2011,12,12,00,16,-1.80
2011,12,12,00,17,-1.80
2011,12,12,00,18,-1.80
2011,12,12,00,19,-1.80
2011,12,12,00,20,-1.80
2011,12,12,00,21,-1.70
2011,12,12,00,22,-1.60
2011,12,12,00,23,-1.60
2011,12,12,00,24,-1.60
2011,12,12,00,25,-1.50
2011,12,12,00,26,-1.40
2011,12,12,00,27,-1.40
2011,12,12,00,28,-1.40
2011,12,12,00,29,-1.40
2011,12,12,00,30,-1.40
2011,12,12,00,31,-1.40
2011,12,12,00,32,-1.30
2011,12,12,00,33,-1.20
2011,12,12,00,34,-1.20
2011,12,12,00,35,-1.10
2011,12,12,00,36,-1.10
2011,12,12,00,37,-1.10
2011,12,12,00,38,-1.10
2011,12,12,00,39,-1.10
2011,12,12,00,40,-1.10
2011,12,12,00,41,-1.10
2011,12,12,00,42,-1.10
2011,12,12,00,43,-1.10
2011,12,12,00,44,-1.10
2011,12,12,00,45,-1.10
2011,12,12,00,46,-0.90
2011,12,12,00,47,-0.90
2011,12,12,00,48,-0.90
2011,12,12,00,49,-0.90
2011,12,12,00,50,-0.90
2011,12,12,00,51,-1.10
2011,12,12,00,52,-1.10
2011,12,12,00,53,-1.00
2011,12,12,00,54,-0.90
2011,12,12,00,55,-0.90
2011,12,12,00,56,-0.90
2011,12,12,00,57,-0.90
2011,12,12,00,58,-0.90
2011,12,12,00,59,-0.90
2011,12,12,01,00,-0.90
2011,12,12,01,01,-0.90
2011,12,12,01,02,-0.90
2011,12,12,01,03,-0.90
2011,12,12,01,04,-0.90
2011,12,12,01,05,-0.90
2011,12,12,01,06,-0.90
2011,12,12,01,07,-1.00
2011,12,12,01,08,-1.10
2011,12,12,01,09,-1.10
2011,12,12,01,10,-1.10
2011,12,12,01,11,-1.10
2011,12,12,01,12,-1.10
2011,12,12,01,13,-1.10
2011,12,12,01,14,-1.20
2011,12,12,01,15,-1.20
2011,12,12,01,16,-1.20
2011,12,12,01,17,-1.30
2011,12,12,01,18,-1.30
2011,12,12,01,19,-1.40
2011,12,12,01,20,-1.40
2011,12,12,01,21,-1.40
2011,12,12,01,22,-1.40
2011,12,12,01,23,-1.50
2011,12,12,01,24,-1.50
2011,12,12,01,25,-1.60
2011,12,12,01,26,-1.60
2011,12,12,01,27,-1.60
2011,12,12,01,28,-1.70
2011,12,12,01,29,-1.70
2011,12,12,01,30,-1.70
2011,12,12,01,31,-1.70
2011,12,12,01,32,-1.70
2011,12,12,01,33,-1.70
2011,12,12,01,34,-1.70
2011,12,12,01,35,-1.60
2011,12,12,01,36,-1.60
2011,12,12,01,37,-1.50
2011,12,12,01,38,-1.50
2011,12,12,01,39,-1.50
2011,12,12,01,40,-1.40
2011,12,12,01,41,-1.40
2011,12,12,01,42,-1.40
2011,12,12,01,43,-1.40
2011,12,12,01,44,-1.40
2011,12,12,01,45,-1.40
2011,12,12,01,46,-1.40
2011,12,12,01,47,-1.30
2011,12,12,01,48,-1.30
2011,12,12,01,49,-1.30
2011,12,12,01,50,-1.20
2011,12,12,01,51,-1.20
2011,12,12,01,52,-1.20
2011,12,12,01,53,-1.30
2011,12,12,01,54,-1.30
2011,12,12,01,55,-1.30
2011,12,12,01,56,-1.30
2011,12,12,01,57,-1.40
2011,12,12,01,58,-1.40
2011,12,12,01,59,-1.40
2011,12,12,02,00,-1.40
2011,12,12,02,01,-1.40
2011,12,12,02,02,-1.50
2011,12,12,02,03,-1.50
2011,12,12,02,04,-1.50
2011,12,12,02,05,-1.50
2011,12,12,02,06,-1.50
2011,12,12,02,07,-1.60
2011,12,12,02,08,-1.60
2011,12,12,02,09,-1.70
2011,12,12,02,10,-1.80
2011,12,12,02,11,-1.80
2011,12,12,02,12,-1.80
2011,12,12,02,13,-1.80
2011,12,12,02,14,-1.80
2011,12,12,02,15,-2.00
2011,12,12,02,16,-2.10
2011,12,12,02,17,-2.20
2011,12,12,02,18,-2.30
2011,12,12,02,19,-2.30
2011,12,12,02,20,-2.30
2011,12,12,02,21,-2.30
2011,12,12,02,22,-2.30
2011,12,12,02,23,-2.30
2011,12,12,02,24,-2.30
2011,12,12,02,25,-2.20
2011,12,12,02,26,-2.10
2011,12,12,02,27,-2.10
2011,12,12,02,28,-2.10
2011,12,12,02,29,-2.10
2011,12,12,02,30,-2.10
2011,12,12,02,31,-2.10
2011,12,12,02,32,-2.10
2011,12,12,02,33,-2.10
2011,12,12,02,34,-2.10
2011,12,12,02,35,-2.10
2011,12,12,02,36,-2.10
2011,12,12,02,37,-2.10
2011,12,12,02,38,-2.10
2011,12,12,02,39,-2.10
2011,12,12,02,40,-2.10
2011,12,12,02,41,-2.10
2011,12,12,02,42,-2.10
2011,12,12,02,43,-2.10
2011,12,12,02,44,-2.10
2011,12,12,02,45,-2.10
2011,12,12,02,46,-2.10
2011,12,12,02,47,-2.10
2011,12,12,02,48,-2.20
2011,12,12,02,49,-2.20
2011,12,12,02,50,-2.20
2011,12,12,02,51,-2.30
2011,12,12,02,52,-2.30
2011,12,12,02,53,-2.30
2011,12,12,02,54,-2.30
2011,12,12,02,55,-2.30
2011,12,12,02,56,-2.30
2011,12,12,02,57,-2.20
2011,12,12,02,58,-2.20
2011,12,12,02,59,-2.10
2011,12,12,03,00,-2.10
2011,12,12,03,01,-2.10
2011,12,12,03,02,-2.00
2011,12,12,03,03,-2.00
2011,12,12,03,04,-2.00
2011,12,12,03,05,-2.00
2011,12,12,03,06,-1.90
2011,12,12,03,07,-1.90
2011,12,12,03,08,-1.90
2011,12,12,03,09,-1.80
2011,12,12,03,10,-1.80
2011,12,12,03,11,-1.80
2011,12,12,03,12,-1.80
2011,12,12,03,13,-1.80
2011,12,12,03,14,-1.80
2011,12,12,03,15,-1.80
2011,12,12,03,16,-1.80
2011,12,12,03,17,-1.80
2011,12,12,03,18,-1.90
2011,12,12,03,19,-2.00
2011,12,12,03,20,-2.20
2011,12,12,03,21,-2.30
2011,12,12,03,22,-2.50
2011,12,12,03,23,-2.50
2011,12,12,03,24,-2.60
2011,12,12,03,25,-2.60
2011,12,12,03,26,-2.70
2011,12,12,03,27,-2.70
2011,12,12,03,28,-2.70
2011,12,12,03,29,-2.70
2011,12,12,03,30,-2.80
2011,12,12,03,31,-2.80
2011,12,12,03,32,-2.80
2011,12,12,03,33,-2.80
2011,12,12,03,34,-2.80
2011,12,12,03,35,-2.80
2011,12,12,03,36,-2.70
2011,12,12,03,37,-2.60
2011,12,12,03,38,-2.60
2011,12,12,03,39,-2.50
2011,12,12,03,40,-2.50
2011,12,12,03,41,-2.50
2011,12,12,03,42,-2.40
2011,12,12,03,43,-2.40
2011,12,12,03,44,-2.40
2011,12,12,03,45,-2.30
2011,12,12,03,46,-2.30
2011,12,12,03,47,-2.30
2011,12,12,03,48,-2.40
2011,12,12,03,49,-2.40
2011,12,12,03,50,-2.40
2011,12,12,03,51,-2.40
2011,12,12,03,52,-2.40
2011,12,12,03,53,-2.40
2011,12,12,03,54,-2.40
2011,12,12,03,55,-2.30
2011,12,12,03,56,-2.30
2011,12,12,03,57,-2.30
2011,12,12,03,58,-2.20
2011,12,12,03,59,-2.20
2011,12,12,04,00,-2.20
2011,12,12,04,01,-2.20
2011,12,12,04,02,-2.20
2011,12,12,04,03,-2.20
2011,12,12,04,04,-2.20
2011,12,12,04,05,-2.30
2011,12,12,04,06,-2.30
2011,12,12,04,07,-2.40
2011,12,12,04,08,-2.50
2011,12,12,04,09,-2.60
2011,12,12,04,10,-2.60
2011,12,12,04,11,-2.70
2011,12,12,04,12,-2.60
2011,12,12,04,13,-2.60
2011,12,12,04,14,-2.60
2011,12,12,04,15,-2.60
2011,12,12,04,16,-2.60
2011,12,12,04,17,-2.60
2011,12,12,04,18,-2.50
2011,12,12,04,19,-2.50
2011,12,12,04,20,-2.40
2011,12,12,04,21,-2.40
2011,12,12,04,22,-2.40
2011,12,12,04,23,-2.40
2011,12,12,04,24,-2.30
2011,12,12,04,25,-2.30
2011,12,12,04,26,-2.30
2011,12,12,04,27,-2.30
2011,12,12,04,28,-2.20
2011,12,12,04,29,-2.20
2011,12,12,04,30,-2.10
2011,12,12,04,31,-2.10
2011,12,12,04,32,-2.10
2011,12,12,04,33,-2.00
2011,12,12,04,34,-2.00
2011,12,12,04,35,-1.90
2011,12,12,04,36,-1.90
2011,12,12,04,37,-1.90
2011,12,12,04,38,-1.80
2011,12,12,04,39,-1.80
2011,12,12,04,40,-1.80
2011,12,12,04,41,-1.80
2011,12,12,04,42,-1.80
2011,12,12,04,43,-1.80
2011,12,12,04,44,-1.80
2011,12,12,04,45,-1.80
2011,12,12,04,46,-1.80
2011,12,12,04,47,-1.80
2011,12,12,04,48,-1.80
2011,12,12,04,49,-1.80
2011,12,12,04,50,-1.70
2011,12,12,04,51,-1.70
2011,12,12,04,52,-1.70
2011,12,12,04,53,-1.70
2011,12,12,04,54,-1.70
2011,12,12,04,55,-1.70
2011,12,12,04,56,-1.70
2011,12,12,04,57,-1.70
2011,12,12,04,58,-1.70
2011,12,12,04,59,-1.70
2011,12,12,05,00,-1.70
2011,12,12,05,01,-1.60
2011,12,12,05,02,-1.60
2011,12,12,05,03,-1.60
2011,12,12,05,04,-1.50
2011,12,12,05,05,-1.50
2011,12,12,05,06,-1.60
2011,12,12,05,07,-1.70
2011,12,12,05,08,-1.70
2011,12,12,05,09,-1.70
2011,12,12,05,10,-1.70
2011,12,12,05,11,-1.70
2011,12,12,05,12,-1.70
2011,12,12,05,13,-1.60
2011,12,12,05,14,-1.50
2011,12,12,05,15,-1.50
2011,12,12,05,16,-1.60
2011,12,12,05,17,-1.60
2011,12,12,05,18,-1.60
2011,12,12,05,19,-1.60
2011,12,12,05,20,-1.60
2011,12,12,05,21,-1.60
2011,12,12,05,22,-1.60
2011,12,12,05,23,-1.70
2011,12,12,05,24,-1.70
2011,12,12,05,25,-1.70
2011,12,12,05,26,-1.70
2011,12,12,05,27,-1.70
2011,12,12,05,28,-1.70
2011,12,12,05,29,-1.80
2011,12,12,05,30,-1.70
2011,12,12,05,31,-1.70
2011,12,12,05,32,-1.80
2011,12,12,05,33,-1.80
2011,12,12,05,34,-2.00
2011,12,12,05,35,-2.10
2011,12,12,05,36,-2.30
2011,12,12,05,37,-2.40
2011,12,12,05,38,-2.40
2011,12,12,05,39,-2.40
2011,12,12,05,40,-2.50
2011,12,12,05,41,-2.50
2011,12,12,05,42,-2.50
2011,12,12,05,43,-2.50
2011,12,12,05,44,-2.50
2011,12,12,05,45,-2.50
2011,12,12,05,46,-2.50
2011,12,12,05,47,-2.40
2011,12,12,05,48,-2.40
2011,12,12,05,49,-2.40
2011,12,12,05,50,-2.40
2011,12,12,05,51,-2.30
2011,12,12,05,52,-2.30
2011,12,12,05,53,-2.30
2011,12,12,05,54,-2.30
2011,12,12,05,55,-2.20
2011,12,12,05,56,-2.20
2011,12,12,05,57,-2.20
2011,12,12,05,58,-2.20
2011,12,12,05,59,-2.20
2011,12,12,06,00,-2.30
2011,12,12,06,01,-2.30
2011,12,12,06,02,-2.30
2011,12,12,06,03,-2.30
2011,12,12,06,04,-2.30
2011,12,12,06,05,-2.30
2011,12,12,06,06,-2.40
2011,12,12,06,07,-2.40
2011,12,12,06,08,-2.40
2011,12,12,06,09,-2.40
2011,12,12,06,10,-2.40
2011,12,12,06,11,-2.40
2011,12,12,06,12,-2.40
2011,12,12,06,13,-2.50
2011,12,12,06,14,-2.50
2011,12,12,06,15,-2.50
2011,12,12,06,16,-2.40
2011,12,12,06,17,-2.40
2011,12,12,06,18,-2.40
2011,12,12,06,19,-2.40
2011,12,12,06,20,-2.40
2011,12,12,06,21,-2.40
2011,12,12,06,22,-2.40
2011,12,12,06,23,-2.40
2011,12,12,06,24,-2.40
2011,12,12,06,25,-2.40
2011,12,12,06,26,-2.40
2011,12,12,06,27,-2.40
2011,12,12,06,28,-2.40
2011,12,12,06,29,-2.40
2011,12,12,06,30,-2.40
2011,12,12,06,31,-2.40
2011,12,12,06,32,-2.50
2011,12,12,06,33,-2.50
2011,12,12,06,34,-2.60
2011,12,12,06,35,-2.60
2011,12,12,06,36,-2.60
2011,12,12,06,37,-2.60
2011,12,12,06,38,-2.60
2011,12,12,06,39,-2.60
2011,12,12,06,40,-2.60
2011,12,12,06,41,-2.60
2011,12,12,06,42,-2.60
2011,12,12,06,43,-2.60
2011,12,12,06,44,-2.60
2011,12,12,06,45,-2.60
2011,12,12,06,46,-2.60
2011,12,12,06,47,-2.60
2011,12,12,06,48,-2.60
2011,12,12,06,49,-2.60
2011,12,12,06,50,-2.60
2011,12,12,06,51,-2.60
2011,12,12,06,52,-2.60
2011,12,12,06,53,-2.60
2011,12,12,06,54,-2.60
2011,12,12,06,55,-2.70
2011,12,12,06,56,-2.60
2011,12,12,06,57,-2.60
2011,12,12,06,58,-2.60
2011,12,12,06,59,-2.60
2011,12,12,07,00,-2.60
2011,12,12,07,01,-2.60
2011,12,12,07,02,-2.60
2011,12,12,07,03,-2.60
2011,12,12,07,04,-2.60
2011,12,12,07,05,-2.60
2011,12,12,07,06,-2.60
2011,12,12,07,07,-2.50
2011,12,12,07,08,-2.50
2011,12,12,07,09,-2.50
2011,12,12,07,10,-2.50
2011,12,12,07,11,-2.60
2011,12,12,07,12,-2.60
2011,12,12,07,13,-2.60
2011,12,12,07,14,-2.50
2011,12,12,07,15,-2.50
2011,12,12,07,16,-2.50
2011,12,12,07,17,-2.50
2011,12,12,07,18,-2.50
2011,12,12,07,19,-2.50
2011,12,12,07,20,-2.50
2011,12,12,07,21,-2.50
2011,12,12,07,22,-2.50
2011,12,12,07,23,-2.60
2011,12,12,07,24,-2.60
2011,12,12,07,25,-2.60
2011,12,12,07,26,-2.60
2011,12,12,07,27,-2.50
2011,12,12,07,28,-2.50
2011,12,12,07,29,-2.50
2011,12,12,07,30,-2.50
2011,12,12,07,31,-2.50
2011,12,12,07,32,-2.50
2011,12,12,07,33,-2.50
2011,12,12,07,34,-2.50
2011,12,12,07,35,-2.60
2011,12,12,07,36,-2.60
2011,12,12,07,37,-2.60
2011,12,12,07,38,-2.60
2011,12,12,07,39,-2.60
2011,12,12,07,40,-2.60
2011,12,12,07,41,-2.70
2011,12,12,07,42,-2.70
2011,12,12,07,43,-2.70
2011,12,12,07,44,-2.80
2011,12,12,07,45,-2.80
2011,12,12,07,46,-2.80
2011,12,12,07,47,-2.80
2011,12,12,07,48,-2.80
2011,12,12,07,49,-2.80
2011,12,12,07,50,-2.80
2011,12,12,07,51,-2.80
2011,12,12,07,52,-2.80
2011,12,12,07,53,-2.90
2011,12,12,07,54,-2.90
2011,12,12,07,55,-2.90
2011,12,12,07,56,-2.90
2011,12,12,07,57,-2.90
2011,12,12,07,58,-2.90
2011,12,12,07,59,-2.90
2011,12,12,08,00,-2.90
2011,12,12,08,01,-2.90
2011,12,12,08,02,-2.90
2011,12,12,08,03,-2.90
2011,12,12,08,04,-2.90
2011,12,12,08,05,-3.00
2011,12,12,08,06,-3.00
2011,12,12,08,07,-3.00
2011,12,12,08,08,-3.00
2011,12,12,08,09,-2.90
2011,12,12,08,10,-2.90
2011,12,12,08,11,-2.90
2011,12,12,08,12,-2.90
2011,12,12,08,13,-2.90
2011,12,12,08,14,-2.90
2011,12,12,08,15,-2.90
2011,12,12,08,16,-2.90
2011,12,12,08,17,-2.90
2011,12,12,08,18,-2.90
2011,12,12,08,19,-2.90
2011,12,12,08,20,-2.90
2011,12,12,08,21,-2.90
2011,12,12,08,22,-2.90
2011,12,12,08,23,-2.90
2011,12,12,08,24,-2.90
2011,12,12,08,25,-2.90
2011,12,12,08,26,-2.90
2011,12,12,08,27,-2.90
2011,12,12,08,28,-2.90
2011,12,12,08,29,-2.80
2011,12,12,08,30,-2.80
2011,12,12,08,31,-2.80
2011,12,12,08,32,-2.80
2011,12,12,08,33,-2.80
2011,12,12,08,34,-2.80
2011,12,12,08,35,-2.80
2011,12,12,08,36,-2.80
2011,12,12,08,37,-2.80
2011,12,12,08,38,-2.80
2011,12,12,08,39,-2.80
2011,12,12,08,40,-2.80
2011,12,12,08,41,-2.80
2011,12,12,08,42,-2.80
2011,12,12,08,43,-2.70
2011,12,12,08,44,-2.70
2011,12,12,08,45,-2.70
2011,12,12,08,46,-2.70
2011,12,12,08,47,-2.60
2011,12,12,08,48,-2.60
2011,12,12,08,49,-2.50
2011,12,12,08,50,-2.50
2011,12,12,08,51,-2.40
2011,12,12,08,52,-2.30
2011,12,12,08,53,-2.30
2011,12,12,08,54,-2.30
2011,12,12,08,55,-2.30
2011,12,12,08,56,-2.20
2011,12,12,08,57,-2.20
2011,12,12,08,58,-2.20
2011,12,12,08,59,-2.20
2011,12,12,09,00,-2.20
2011,12,12,09,01,-2.20
2011,12,12,09,02,-2.20
2011,12,12,09,03,-2.20
2011,12,12,09,04,-2.10
2011,12,12,09,05,-2.10
2011,12,12,09,06,-2.10
2011,12,12,09,07,-2.10
2011,12,12,09,08,-2.00
2011,12,12,09,09,-2.00
2011,12,12,09,10,-1.90
2011,12,12,09,11,-1.90
2011,12,12,09,12,-1.90
2011,12,12,09,13,-1.80
2011,12,12,09,14,-1.80
2011,12,12,09,15,-1.80
2011,12,12,09,16,-1.80
2011,12,12,09,17,-1.80
2011,12,12,09,18,-1.80
2011,12,12,09,19,-1.70
2011,12,12,09,20,-1.70
2011,12,12,09,21,-1.70
2011,12,12,09,22,-1.70
2011,12,12,09,23,-1.60
2011,12,12,09,24,-1.60
2011,12,12,09,25,-1.50
2011,12,12,09,26,-1.50
2011,12,12,09,27,-1.40
2011,12,12,09,28,-1.40
2011,12,12,09,29,-1.40
2011,12,12,09,30,-1.30
2011,12,12,09,31,-1.20
2011,12,12,09,32,-1.20
2011,12,12,09,33,-1.10
2011,12,12,09,34,-1.00
2011,12,12,09,35,-0.90
2011,12,12,09,36,-0.80
2011,12,12,09,37,-0.70
2011,12,12,09,38,-0.60
2011,12,12,09,39,-0.60
2011,12,12,09,40,-0.60
2011,12,12,09,41,-0.50
2011,12,12,09,42,-0.40
2011,12,12,09,43,-0.40
2011,12,12,09,44,-0.40
2011,12,12,09,45,-0.40
2011,12,12,09,46,-0.40
2011,12,12,09,47,-0.30
2011,12,12,09,48,-0.20
2011,12,12,09,49,-0.10
2011,12,12,09,50,0.10
2011,12,12,09,51,0.20
2011,12,12,09,52,0.30
2011,12,12,09,53,0.40
2011,12,12,09,54,0.40
2011,12,12,09,55,0.50
2011,12,12,09,56,0.50
2011,12,12,09,57,0.60
2011,12,12,09,58,0.60
2011,12,12,09,59,0.70
2011,12,12,10,00,0.80
2011,12,12,10,01,0.80
2011,12,12,10,02,0.90
2011,12,12,10,03,0.90
2011,12,12,10,04,1.00
2011,12,12,10,05,1.00
2011,12,12,10,06,1.00
2011,12,12,10,07,1.10
2011,12,12,10,08,1.10
2011,12,12,10,09,1.20
2011,12,12,10,10,1.30
2011,12,12,10,11,1.30
2011,12,12,10,12,1.40
2011,12,12,10,13,1.50
2011,12,12,10,14,1.60
2011,12,12,10,15,1.70
2011,12,12,10,16,1.70
2011,12,12,10,17,1.80
2011,12,12,10,18,2.00
2011,12,12,10,19,2.10
2011,12,12,10,20,2.20
2011,12,12,10,21,2.30
2011,12,12,10,22,2.40
2011,12,12,10,23,2.50
2011,12,12,10,24,2.60
2011,12,12,10,25,2.70
2011,12,12,10,26,2.80
2011,12,12,10,27,2.80
2011,12,12,10,28,2.90
2011,12,12,10,29,3.00
2011,12,12,10,30,3.10
2011,12,12,10,31,3.10
2011,12,12,10,32,3.20
2011,12,12,10,33,3.30
2011,12,12,10,34,3.30
2011,12,12,10,35,3.30
2011,12,12,10,36,3.40
2011,12,12,10,37,3.40
2011,12,12,10,38,3.50
2011,12,12,10,39,3.50
2011,12,12,10,40,3.50
2011,12,12,10,41,3.60
2011,12,12,10,42,3.60
2011,12,12,10,43,3.60
2011,12,12,10,44,3.70
2011,12,12,10,45,3.70
2011,12,12,10,46,3.70
2011,12,12,10,47,3.80
2011,12,12,10,48,3.80
2011,12,12,10,49,3.80
2011,12,12,10,50,3.80
2011,12,12,10,51,3.80
2011,12,12,10,52,3.80
2011,12,12,10,53,3.80
2011,12,12,10,54,3.80
2011,12,12,10,55,3.80
2011,12,12,10,56,3.80
2011,12,12,10,57,3.90
2011,12,12,10,58,3.90
2011,12,12,10,59,3.90
2011,12,12,11,00,3.90
2011,12,12,11,01,3.90
2011,12,12,11,02,3.90
2011,12,12,11,03,4.00
2011,12,12,11,04,4.00
2011,12,12,11,05,4.00
2011,12,12,11,06,4.00
2011,12,12,11,07,4.00
2011,12,12,11,08,4.00
2011,12,12,11,09,4.00
2011,12,12,11,10,4.00
2011,12,12,11,11,4.10
2011,12,12,11,12,4.10
2011,12,12,11,13,4.10
2011,12,12,11,14,4.10
2011,12,12,11,15,4.10
2011,12,12,11,16,4.20
2011,12,12,11,17,4.20
2011,12,12,11,18,4.20
2011,12,12,11,19,4.20
2011,12,12,11,20,4.20
2011,12,12,11,21,4.20
2011,12,12,11,22,4.20
2011,12,12,11,23,4.10
2011,12,12,11,24,4.10
2011,12,12,11,25,4.10
2011,12,12,11,26,4.00
2011,12,12,11,27,4.00
2011,12,12,11,28,4.00
2011,12,12,11,29,4.00
2011,12,12,11,30,4.00
2011,12,12,11,31,4.00
2011,12,12,11,32,4.00
2011,12,12,11,33,4.00
2011,12,12,11,34,3.90
2011,12,12,11,35,3.90
2011,12,12,11,36,4.00
2011,12,12,11,37,4.00
2011,12,12,11,38,4.00
2011,12,12,11,39,4.00
2011,12,12,11,40,4.00
2011,12,12,11,41,4.00
2011,12,12,11,42,4.10
2011,12,12,11,43,4.10
2011,12,12,11,44,4.10
2011,12,12,11,45,4.20
2011,12,12,11,46,4.20
2011,12,12,11,47,4.20
2011,12,12,11,48,4.30
2011,12,12,11,49,4.40
2011,12,12,11,50,4.40
2011,12,12,11,51,4.40
2011,12,12,11,52,4.30
2011,12,12,11,53,4.30
2011,12,12,11,54,4.30
2011,12,12,11,55,4.30
2011,12,12,11,56,4.30
2011,12,12,11,57,4.30
2011,12,12,11,58,4.20
2011,12,12,11,59,4.30
2011,12,12,12,00,4.30
2011,12,12,12,01,4.30
2011,12,12,12,02,4.30
2011,12,12,12,03,4.30
2011,12,12,12,04,4.30
2011,12,12,12,05,4.30
2011,12,12,12,06,4.30
2011,12,12,12,07,4.30
2011,12,12,12,08,4.30
2011,12,12,12,09,4.30
2011,12,12,12,10,4.30
2011,12,12,12,11,4.30
2011,12,12,12,12,4.30
2011,12,12,12,13,4.40
2011,12,12,12,14,4.40
2011,12,12,12,15,4.50
2011,12,12,12,16,4.60
2011,12,12,12,17,4.70
2011,12,12,12,18,4.70
2011,12,12,12,19,4.70
2011,12,12,12,20,4.80
2011,12,12,12,21,4.80
2011,12,12,12,22,4.70
2011,12,12,12,23,4.70
2011,12,12,12,24,4.70
2011,12,12,12,25,4.70
2011,12,12,12,26,4.60
2011,12,12,12,27,4.70
2011,12,12,12,28,4.70
2011,12,12,12,29,4.60
2011,12,12,12,30,4.60
2011,12,12,12,31,4.60
2011,12,12,12,32,4.60
2011,12,12,12,33,4.60
2011,12,12,12,34,4.60
2011,12,12,12,35,4.60
2011,12,12,12,36,4.70
2011,12,12,12,37,4.70
2011,12,12,12,38,4.60
2011,12,12,12,39,4.60
2011,12,12,12,40,4.60
2011,12,12,12,41,4.60
2011,12,12,12,42,4.70
2011,12,12,12,43,4.70
2011,12,12,12,44,4.70
2011,12,12,12,45,4.70
2011,12,12,12,46,4.70
2011,12,12,12,47,4.70
2011,12,12,12,48,4.70
2011,12,12,12,49,4.80
2011,12,12,12,50,4.80
2011,12,12,12,51,4.80
2011,12,12,12,52,4.80
2011,12,12,12,53,4.80
2011,12,12,12,54,4.80
2011,12,12,12,55,4.80
2011,12,12,12,56,4.80
2011,12,12,12,57,4.80
2011,12,12,12,58,4.80
2011,12,12,12,59,4.80
2011,12,12,13,00,4.80
2011,12,12,13,01,4.80
2011,12,12,13,02,4.80
2011,12,12,13,03,4.80
2011,12,12,13,04,4.80
2011,12,12,13,05,4.80
2011,12,12,13,06,4.80
2011,12,12,13,07,4.70
2011,12,12,13,08,4.70
2011,12,12,13,09,4.70
2011,12,12,13,10,4.60
2011,12,12,13,11,4.60
2011,12,12,13,12,4.60
2011,12,12,13,13,4.60
2011,12,12,13,14,4.60
2011,12,12,13,15,4.60
2011,12,12,13,16,4.60
2011,12,12,13,17,4.60
2011,12,12,13,18,4.60
2011,12,12,13,19,4.60
2011,12,12,13,20,4.60
2011,12,12,13,21,4.60
2011,12,12,13,22,4.60
2011,12,12,13,23,4.60
2011,12,12,13,24,4.60
2011,12,12,13,25,4.60
2011,12,12,13,26,4.60
2011,12,12,13,27,4.60
2011,12,12,13,28,4.70
2011,12,12,13,29,4.70
2011,12,12,13,30,4.70
2011,12,12,13,31,4.70
2011,12,12,13,32,4.70
2011,12,12,13,33,4.70
2011,12,12,13,34,4.70
2011,12,12,13,35,4.70
2011,12,12,13,36,4.70
2011,12,12,13,37,4.70
2011,12,12,13,38,4.70
2011,12,12,13,39,4.70
2011,12,12,13,40,4.70
2011,12,12,13,41,4.70
2011,12,12,13,42,4.70
2011,12,12,13,43,4.70
2011,12,12,13,44,4.70
2011,12,12,13,45,4.70
2011,12,12,13,46,4.70
2011,12,12,13,47,4.60
2011,12,12,13,48,4.60
2011,12,12,13,49,4.60
2011,12,12,13,50,4.60
2011,12,12,13,51,4.60
2011,12,12,13,52,4.60
2011,12,12,13,53,4.60
2011,12,12,13,54,4.60
2011,12,12,13,55,4.60
2011,12,12,13,56,4.60
2011,12,12,13,57,4.60
2011,12,12,13,58,4.60
2011,12,12,13,59,4.60
2011,12,12,14,00,4.60
2011,12,12,14,01,4.60
2011,12,12,14,02,4.60
2011,12,12,14,03,4.60
2011,12,12,14,04,4.60
2011,12,12,14,05,4.60
2011,12,12,14,06,4.60
2011,12,12,14,07,4.60
2011,12,12,14,08,4.60
2011,12,12,14,09,4.60
2011,12,12,14,10,4.60
2011,12,12,14,11,4.60
2011,12,12,14,12,4.60
2011,12,12,14,13,4.60
2011,12,12,14,14,4.60
2011,12,12,14,15,4.60
2011,12,12,14,16,4.60
2011,12,12,14,17,4.60
2011,12,12,14,18,4.60
2011,12,12,14,19,4.60
2011,12,12,14,20,4.60
2011,12,12,14,21,4.60
2011,12,12,14,22,4.60
2011,12,12,14,23,4.60
2011,12,12,14,24,4.60
2011,12,12,14,25,4.60
2011,12,12,14,26,4.60
2011,12,12,14,27,4.60
2011,12,12,14,28,4.60
2011,12,12,14,29,4.60
2011,12,12,14,30,4.60
2011,12,12,14,31,4.60
2011,12,12,14,32,4.60
2011,12,12,14,33,4.60
2011,12,12,14,34,4.60
2011,12,12,14,35,4.60
2011,12,12,14,36,4.60
2011,12,12,14,37,4.60
2011,12,12,14,38,4.60
2011,12,12,14,39,4.50
2011,12,12,14,40,4.50
2011,12,12,14,41,4.50
2011,12,12,14,42,4.50
2011,12,12,14,43,4.50
2011,12,12,14,44,4.50
2011,12,12,14,45,4.40
2011,12,12,14,46,4.40
2011,12,12,14,47,4.40
2011,12,12,14,48,4.40
2011,12,12,14,49,4.40
2011,12,12,14,50,4.40
2011,12,12,14,51,4.40
2011,12,12,14,52,4.40
2011,12,12,14,53,4.40
2011,12,12,14,54,4.30
2011,12,12,14,55,4.30
2011,12,12,14,56,4.30
2011,12,12,14,57,4.30
2011,12,12,14,58,4.30
2011,12,12,14,59,4.30
2011,12,12,15,00,4.30
2011,12,12,15,01,4.30
2011,12,12,15,02,4.30
2011,12,12,15,03,4.30
2011,12,12,15,04,4.30
2011,12,12,15,05,4.30
2011,12,12,15,06,4.30
2011,12,12,15,07,4.30
2011,12,12,15,08,4.30
2011,12,12,15,09,4.20
2011,12,12,15,10,4.20
2011,12,12,15,11,4.20
2011,12,12,15,12,4.20
2011,12,12,15,13,4.20
2011,12,12,15,14,4.20
2011,12,12,15,15,4.20
2011,12,12,15,16,4.10
2011,12,12,15,17,4.10
2011,12,12,15,18,4.10
2011,12,12,15,19,4.10
2011,12,12,15,20,4.00
2011,12,12,15,21,4.00
2011,12,12,15,22,4.00
2011,12,12,15,23,4.00
2011,12,12,15,24,4.00
2011,12,12,15,25,3.90
2011,12,12,15,26,3.90
2011,12,12,15,27,3.90
2011,12,12,15,28,3.80
2011,12,12,15,29,3.80
2011,12,12,15,30,3.80
2011,12,12,15,31,3.80
2011,12,12,15,32,3.80
2011,12,12,15,33,3.80
2011,12,12,15,34,3.80
2011,12,12,15,35,3.80
2011,12,12,15,36,3.70
2011,12,12,15,37,3.70
2011,12,12,15,38,3.70
2011,12,12,15,39,3.70
2011,12,12,15,40,3.60
2011,12,12,15,41,3.60
2011,12,12,15,42,3.60
2011,12,12,15,43,3.60
2011,12,12,15,44,3.60
2011,12,12,15,45,3.50
2011,12,12,15,46,3.50
2011,12,12,15,47,3.50
2011,12,12,15,48,3.50
2011,12,12,15,49,3.40
2011,12,12,15,50,3.40
2011,12,12,15,51,3.40
2011,12,12,15,52,3.30
2011,12,12,15,53,3.30
2011,12,12,15,54,3.30
2011,12,12,15,55,3.30
2011,12,12,15,56,3.30
2011,12,12,15,57,3.20
2011,12,12,15,58,3.20
2011,12,12,15,59,3.10
2011,12,12,16,00,3.10
2011,12,12,16,01,3.10
2011,12,12,16,02,3.10
2011,12,12,16,03,3.00
2011,12,12,16,04,2.90
2011,12,12,16,05,2.90
2011,12,12,16,06,2.90
2011,12,12,16,07,2.90
2011,12,12,16,08,2.90
2011,12,12,16,09,2.90
2011,12,12,16,10,2.80
2011,12,12,16,11,2.80
2011,12,12,16,12,2.80
2011,12,12,16,13,2.70
2011,12,12,16,14,2.70
2011,12,12,16,15,2.70
2011,12,12,16,16,2.70
2011,12,12,16,17,2.60
2011,12,12,16,18,2.60
2011,12,12,16,19,2.50
2011,12,12,16,20,2.50
2011,12,12,16,21,2.40
2011,12,12,16,22,2.40
2011,12,12,16,23,2.40
2011,12,12,16,24,2.30
2011,12,12,16,25,2.30
2011,12,12,16,26,2.20
2011,12,12,16,27,2.20
2011,12,12,16,28,2.20
2011,12,12,16,29,2.10
2011,12,12,16,30,2.10
2011,12,12,16,31,2.00
2011,12,12,16,32,2.00
2011,12,12,16,33,1.90
2011,12,12,16,34,1.90
2011,12,12,16,35,1.80
2011,12,12,16,36,1.80
2011,12,12,16,37,1.80
2011,12,12,16,38,1.80
2011,12,12,16,39,1.80
2011,12,12,16,40,1.70
2011,12,12,16,41,1.70
2011,12,12,16,42,1.60
2011,12,12,16,43,1.60
2011,12,12,16,44,1.50
2011,12,12,16,45,1.50
2011,12,12,16,46,1.40
2011,12,12,16,47,1.40
2011,12,12,16,48,1.30
2011,12,12,16,49,1.30
2011,12,12,16,50,1.30
2011,12,12,16,51,1.20
2011,12,12,16,52,1.20
2011,12,12,16,53,1.10
2011,12,12,16,54,1.10
2011,12,12,16,55,1.10
2011,12,12,16,56,1.00
2011,12,12,16,57,1.00
2011,12,12,16,58,1.00
2011,12,12,16,59,0.90
2011,12,12,17,00,0.90
2011,12,12,17,01,0.80
2011,12,12,17,02,0.80
2011,12,12,17,03,0.80
2011,12,12,17,04,0.70
2011,12,12,17,05,0.70
2011,12,12,17,06,0.60
2011,12,12,17,07,0.60
2011,12,12,17,08,0.60
2011,12,12,17,09,0.50
2011,12,12,17,10,0.50
2011,12,12,17,11,0.40
2011,12,12,17,12,0.40
2011,12,12,17,13,0.40
2011,12,12,17,14,0.40
2011,12,12,17,15,0.30
2011,12,12,17,16,0.30
2011,12,12,17,17,0.30
2011,12,12,17,18,0.20
2011,12,12,17,19,0.20
2011,12,12,17,20,0.20
2011,12,12,17,21,0.10
2011,12,12,17,22,0.10
2011,12,12,17,23,0.10
2011,12,12,17,24,0.10
2011,12,12,17,25,0.00
2011,12,12,17,26,-0.10
2011,12,12,17,27,-0.10
2011,12,12,17,28,-0.10
2011,12,12,17,29,-0.10
2011,12,12,17,30,-0.20
2011,12,12,17,31,-0.20
2011,12,12,17,32,-0.20
2011,12,12,17,33,-0.30
2011,12,12,17,34,-0.30
2011,12,12,17,35,-0.40
2011,12,12,17,36,-0.40
2011,12,12,17,37,-0.40
2011,12,12,17,38,-0.40
2011,12,12,17,39,-0.40